Location: South Tamworth Observatory
(43.8246°N, 71.3026°W)
Time: 15:00:41
(UTC-05:00)

Amateur Radio Satellites - All Passes

Search period start: 30 January 2015 14:30
Search period end: 31 January 2015 14:30
Location: South Tamworth Observatory, 43.8246°N, 71.3026°W

Satellite Date Start Highest point End Downlink Frequencies (MHz)
Time Altitude Azimuth
SWISSCUBE 30 Jan 14:36:53 14:40:36 22° 295° (WNW) 14:44:12 437.505
STARS 30 Jan 14:42:05 14:46:32 67° 102° (ESE) 14:50:57 437.465
Gurwin Techsat 1B 30 Jan 14:50:12 14:54:02 19° 270° (W) 14:57:42 435.225
JAS-2 30 Jan 14:50:40 14:55:25 34° 68° (ENE) 15:00:05 435.910
M-CUBED/EXP-1 PRIME 30 Jan 14:51:22 14:54:06 24° 101° (ESE) 14:56:57 437.505
KKS-1 30 Jan 14:51:22 14:55:52 66° 286° (WNW) 15:00:18 437.445
BEESAT 30 Jan 14:52:51 14:56:03 18° 297° (WNW) 14:59:05 436.000
RS-15 30 Jan 14:54:34 15:04:55 40° 250° (WSW) 15:15:25 29.354- 29.394
ITUPSAT 1 30 Jan 14:57:42 15:00:44 16° 298° (WNW) 15:03:35 437.325
AUBIESAT-1 30 Jan 15:23:04 15:26:20 55° 106° (ESE) 15:29:43 437.475
O/OREOS (USA 219) 30 Jan 15:41:36 15:46:04 75° 112° (ESE) 15:50:36 437.305
HORYU 2 30 Jan 15:43:56 15:46:15 13° 271° (W) 15:48:21 437.375
DANDE 30 Jan 15:51:25 15:57:06 31° 274° (W) 16:01:29 436.750
Cubesat XI-IV 30 Jan 15:58:36 16:02:32 22° 63° (ENE) 16:06:38 437.490
CUSAT 1 30 Jan 16:14:50 16:18:14 15° 281° (W) 16:20:57 437.405
CUTE-I 30 Jan 16:17:25 16:21:59 31° 66° (ENE) 16:26:40 437.470
AO-7 30 Jan 16:17:52 16:25:11 31° 266° (W) 16:32:19 29.400- 29.500
STARS 30 Jan 16:20:07 16:22:32 14° 298° (WNW) 16:24:47 437.465
M-CUBED/EXP-1 PRIME 30 Jan 16:26:31 16:29:04 20° 297° (WNW) 16:31:35 437.505
JAS-2 30 Jan 16:35:50 16:40:39 31° 265° (W) 16:45:13 435.910
MOZHAYETS 4 30 Jan 16:39:53 16:44:29 76° 102° (ESE) 16:49:03
AUBIESAT-1 30 Jan 17:00:26 17:00:57 10° 301° (WNW) 17:01:20 437.475
CUBESAT XI-V 30 Jan 17:02:40 17:02:51 10° 85° (E) 17:03:22 437.345
SO-50 30 Jan 17:15:37 17:19:52 29° 42° (NE) 17:24:11 436.795
O/OREOS (USA 219) 30 Jan 17:23:32 17:26:08 15° 312° (NW) 17:28:35 437.305
YUBILEINY 30 Jan 17:24:12 17:28:53 17° 77° (ENE) 17:34:06 435.215
Cubesat XI-IV 30 Jan 17:37:04 17:42:17 55° 260° (W) 17:47:33 437.490
STRAND 1 30 Jan 17:40:34 17:44:07 19° 90° (E) 17:47:50 437.568
BRITE-PL 30 Jan 17:54:24 17:56:23 12° 57° (ENE) 17:58:40 437.365/2234.400
CUTE-I 30 Jan 17:57:04 18:01:59 37° 263° (W) 18:06:56 437.470
PRISM 30 Jan 18:02:57 18:07:03 57° 101° (E) 18:11:10 437.425
MOZHAYETS 4 30 Jan 18:18:59 18:21:11 13° 298° (WNW) 18:23:11
HO-68 30 Jan 18:35:10 18:41:26 35° 62° (ENE) 18:47:48 435.675
CUBESAT XI-V 30 Jan 18:36:21 18:41:05 87° 281° (W) 18:45:47 437.345
CANX-2 30 Jan 18:37:54 18:40:43 18° 66° (ENE) 18:43:39 2200.000
AAUSAT CUBESAT 2 30 Jan 18:45:40 18:47:14 12° 63° (ENE) 18:49:00 437.432
SO-50 30 Jan 18:55:55 19:00:41 48° 241° (WSW) 19:05:23 436.795
CINEMA 3 30 Jan 19:00:23 19:02:55 14° 61° (ENE) 19:05:41 145.822/145.860
CUTE 1.7 + AOD 2 30 Jan 19:00:56 19:04:32 27° 69° (ENE) 19:08:12 437.475
Oscar 11 30 Jan 19:10:01 19:11:31 12° 62° (ENE) 19:13:13 145.826/435.025
YUBILEINY 30 Jan 19:15:49 19:24:29 82° 97° (E) 19:33:15 435.215
GOMX 1 30 Jan 19:16:49 19:21:40 44° 70° (ENE) 19:26:50 467.674
STRAND 1 30 Jan 19:18:41 19:23:45 56° 288° (WNW) 19:28:47 437.568
DOVE 4 30 Jan 19:22:11 19:26:49 37° 69° (ENE) 19:31:41 437.250
BRITE-PL 30 Jan 19:28:51 19:33:58 77° 75° (ENE) 19:39:31 437.365/2234.400
SEEDS 30 Jan 19:28:55 19:32:59 45° 72° (ENE) 19:37:04 437.485
PRISM 30 Jan 19:39:51 19:42:11 14° 297° (WNW) 19:44:22 437.425
UKube-1 30 Jan 19:44:57 19:47:37 17° 64° (ENE) 19:50:27 .
COMPASS 1 30 Jan 19:53:05 19:57:17 70° 76° (ENE) 20:01:31 437.405
CUBEBUG 2 30 Jan 20:00:25 20:04:30 29° 68° (ENE) 20:08:40 437.445
ZACube-1 30 Jan 20:01:54 20:05:21 22° 66° (ENE) 20:08:55 437.345
DELFI C3 30 Jan 20:05:09 20:08:48 32° 70° (ENE) 20:12:28 145.870
DX 1 30 Jan 20:06:28 20:10:09 28° 67° (ENE) 20:13:54 434.975-435.025
CANX-2 30 Jan 20:12:13 20:16:22 47° 261° (W) 20:20:31 2200.000
FUNcube-1 30 Jan 20:12:53 20:16:43 27° 68° (ENE) 20:20:37 145.935
CUBESAT XI-V 30 Jan 20:16:23 20:17:53 11° 300° (WNW) 20:19:09 437.345
AAUSAT CUBESAT 2 30 Jan 20:18:13 20:22:25 70° 260° (W) 20:26:37 437.432
HO-68 30 Jan 20:22:04 20:28:59 50° 260° (W) 20:35:54 435.675
CINEMA 3 30 Jan 20:34:32 20:39:30 82° 257° (WSW) 20:44:36 145.822/145.860
UWE-3 30 Jan 20:36:34 20:41:08 55° 73° (ENE) 20:45:46 435.000/436.395/437.385
CUTE 1.7 + AOD 2 30 Jan 20:36:41 20:40:27 28° 265° (W) 20:44:09 437.475
AISAT 30 Jan 20:38:37 20:42:10 24° 66° (ENE) 20:45:49 437.250
Oscar 11 30 Jan 20:42:48 20:47:10 78° 258° (WSW) 20:51:32 145.826/435.025
ESTCUBE 1 30 Jan 20:48:01 20:50:14 14° 62° (ENE) 20:52:38 437.505/2401.250
50 SAT 30 Jan 20:49:59 20:53:23 26° 68° (ENE) 20:56:51 437.505
GOMX 1 30 Jan 20:55:44 21:00:02 26° 269° (W) 21:04:25 467.674
DOVE 4 30 Jan 21:00:08 21:04:39 30° 267° (W) 21:09:15 437.250
VELOX 1 30 Jan 21:05:18 21:09:28 42° 71° (ENE) 21:13:42 145.980
SEEDS 30 Jan 21:06:15 21:09:06 17° 270° (W) 21:11:48 437.485
CUBEBUG 1 30 Jan 21:09:56 21:13:05 20° 65° (ENE) 21:16:22 437.445
BRITE-PL 30 Jan 21:10:22 21:13:19 14° 276° (W) 21:16:05 437.365/2234.400
YUBILEINY 30 Jan 21:15:50 21:22:35 23° 300° (WNW) 21:29:02 435.215
ISS 30 Jan 21:16:10 21:19:25 65° 145° (SE) 21:22:41 145.825
UKube-1 30 Jan 21:19:12 21:23:26 52° 260° (W) 21:27:43 .
HUMSAT D 30 Jan 21:27:19 21:31:41 87° 77° (ENE) 21:36:04 437.325/437.525
COMPASS 1 30 Jan 21:32:25 21:33:35 11° 273° (W) 21:34:29 437.405
AIST 1 30 Jan 21:35:20 21:39:36 52° 78° (ENE) 21:43:53
CUBEBUG 2 30 Jan 21:36:49 21:41:09 33° 265° (W) 21:45:27 437.445
ZACube-1 30 Jan 21:37:05 21:41:29 43° 262° (W) 21:45:54 437.345
POPSAT HIP 1 30 Jan 21:40:25 21:42:32 14° 89° (E) 21:44:51 437.405
DELFI C3 30 Jan 21:40:55 21:44:08 21° 267° (W) 21:47:15 145.870
DUCHIFAT 1 30 Jan 21:42:01 21:44:13 14° 89° (E) 21:46:37 145.980
UNISAT 6 30 Jan 21:42:20 21:45:57 24° 93° (E) 21:49:33 437.425
DX 1 30 Jan 21:42:33 21:46:22 29° 264° (W) 21:50:11 434.975-435.025
FUNcube-1 30 Jan 21:48:46 21:52:58 34° 264° (W) 21:57:09 145.935
AISAT 30 Jan 22:14:32 22:18:39 36° 263° (W) 22:22:47 437.250
UWE-3 30 Jan 22:14:59 22:18:05 17° 271° (W) 22:21:02 435.000/436.395/437.385
NANOSAT C BR1 30 Jan 22:15:44 22:19:37 32° 96° (E) 22:23:30 145.865
ANTELSAT 30 Jan 22:17:56 22:22:21 58° 100° (E) 22:26:38 437.575/2403.000
ESTCUBE 1 30 Jan 22:22:10 22:26:38 69° 258° (WSW) 22:31:07 437.505/2401.250
SPROUT 30 Jan 22:24:08 22:27:52 29° 69° (ENE) 22:31:40 437.525
TIGRISAT 30 Jan 22:24:41 22:29:08 68° 102° (ESE) 22:33:27 435.000
50 SAT 30 Jan 22:24:49 22:28:26 28° 265° (W) 22:32:02 437.505
QB50P2 30 Jan 22:30:50 22:35:02 48° 99° (E) 22:39:12 145.880/145.840
QB50P1 30 Jan 22:39:31 22:43:49 59° 101° (E) 22:48:02 145.935-145.965
BUGSAT 1 30 Jan 22:42:34 22:46:44 49° 99° (E) 22:50:55 437.445
VELOX 1 30 Jan 22:43:01 22:46:18 20° 268° (W) 22:49:30 145.980
CUBEBUG 1 30 Jan 22:45:06 22:49:14 41° 262° (W) 22:53:24 437.445
BEESAT 30 Jan 22:48:33 22:49:17 10° 58° (ENE) 22:50:17 436.000
ITUPSAT 1 30 Jan 22:52:47 22:54:12 11° 59° (ENE) 22:55:51 437.325
ISS 30 Jan 22:53:11 22:56:06 28° 343° (NNW) 22:59:02 145.825
TISAT 1 30 Jan 22:54:58 22:59:09 62° 74° (ENE) 23:03:23 437.305
POLYITAN 1 30 Jan 22:55:26 22:59:47 90° 100° (E) 23:04:05 437.675
AIST 1 30 Jan 23:14:26 23:16:53 14° 274° (W) 23:19:09
POPSAT HIP 1 30 Jan 23:14:38 23:18:54 57° 286° (WNW) 23:23:05 437.405
DUCHIFAT 1 30 Jan 23:16:17 23:20:31 55° 287° (WNW) 23:24:41 145.980
UNISAT 6 30 Jan 23:18:49 23:22:50 33° 291° (WNW) 23:26:43 437.425
GONETS M04 30 Jan 23:25:16 23:31:27 23° 81° (E) 23:37:58
NANOSAT C BR1 30 Jan 23:51:51 23:55:24 24° 293° (WNW) 23:58:49 145.865
ANTELSAT 30 Jan 23:56:02 23:58:43 15° 297° (WNW) 00:01:13 437.575/2403.000
Oscar 19 30 Jan 23:58:11 00:00:11 12° 86° (E) 00:02:29 437.125/150
SPROUT 31 Jan 00:00:17 00:03:59 27° 266° (W) 00:07:39 437.525
TIGRISAT 31 Jan 00:03:04 00:05:23 14° 298° (WNW) 00:07:29 435.000
SWISSCUBE 31 Jan 00:06:18 00:10:59 60° 72° (ENE) 00:15:42 437.505
QB50P2 31 Jan 00:07:42 00:10:37 17° 296° (WNW) 00:13:24 145.880/145.840
O/OREOS (USA 219) 31 Jan 00:11:34 00:15:07 22° 53° (NE) 00:18:46 437.305
KKS-1 31 Jan 00:16:27 00:19:00 16° 63° (ENE) 00:21:43 437.445
QB50P1 31 Jan 00:16:48 00:19:16 15° 297° (WNW) 00:21:35 145.935-145.965
BUGSAT 1 31 Jan 00:19:02 00:21:55 17° 295° (WNW) 00:24:38 437.445
BEESAT 31 Jan 00:21:41 00:26:26 79° 74° (ENE) 00:31:13 436.000
ITUPSAT 1 31 Jan 00:26:40 00:31:26 86° 74° (ENE) 00:36:14 437.325
ISS 31 Jan 00:30:44 00:33:19 21° 4° (N) 00:35:53 145.825
TISAT 1 31 Jan 00:33:31 00:35:28 13° 272° (W) 00:37:14 437.305
POLYITAN 1 31 Jan 00:34:25 00:35:06 10° 300° (WNW) 00:35:34 437.675
GONETS M04 31 Jan 01:18:40 01:27:27 78° 280° (W) 01:36:13
Gurwin Techsat 1B 31 Jan 01:24:02 01:27:54 21° 91° (E) 01:31:55 435.225
BEESAT 2 31 Jan 01:33:13 01:37:16 59° 121° (ESE) 01:41:24 435.950
Oscar 19 31 Jan 01:35:08 01:40:19 82° 286° (WNW) 01:45:27 437.125/150
AIST 2 31 Jan 01:38:55 01:42:36 29° 115° (ESE) 01:46:22 435.215
STARS 31 Jan 01:40:18 01:44:43 70° 74° (ENE) 01:49:11 437.465
M-CUBED/EXP-1 PRIME 31 Jan 01:41:31 01:45:21 49° 69° (ENE) 01:48:53 437.505
DANDE 31 Jan 01:41:54 01:43:24 11° 76° (ENE) 01:45:37 436.750
BEESAT 3 31 Jan 01:45:25 01:49:32 90° 131° (SE) 01:53:43 437.485
SWISSCUBE 31 Jan 01:46:26 01:49:21 15° 271° (W) 01:52:04 437.505
O/OREOS (USA 219) 31 Jan 01:50:24 01:54:49 45° 252° (WSW) 01:59:10 437.305
KKS-1 31 Jan 01:50:47 01:55:13 61° 259° (W) 01:59:42 437.445
ITAMSAT 1 31 Jan 01:55:11 02:00:20 55° 100° (E) 02:05:28 435.822/435.867
HORYU 2 31 Jan 01:57:26 01:58:27 11° 87° (E) 01:59:45 437.375
CUSAT 1 31 Jan 01:57:30 02:02:23 18° 81° (E) 02:07:42 437.405
BEESAT 31 Jan 02:03:12 02:04:59 12° 273° (W) 02:06:30 436.000
ISS 31 Jan 02:07:14 02:10:23 41° 23° (NNE) 02:13:32 145.825
ITUPSAT 1 31 Jan 02:09:06 02:10:07 10° 274° (W) 02:10:50 437.325
MOZHAYETS 4 31 Jan 02:10:56 02:11:04 10° 60° (ENE) 02:11:27
AUBIESAT-1 31 Jan 02:13:05 02:17:02 77° 251° (WSW) 02:20:40 437.475
AO-7 31 Jan 02:25:34 02:30:19 17° 86° (E) 02:35:34 29.400- 29.500
PCSat 31 Jan 02:27:00 02:30:20 17° 106° (ESE) 02:33:54 145.827
Gurwin Techsat 1B 31 Jan 03:03:05 03:08:17 54° 289° (WNW) 03:13:26 435.225
RS-15 31 Jan 03:08:39 03:17:42 33° 107° (ESE) 03:27:05 29.354- 29.394
BEESAT 2 31 Jan 03:12:48 03:15:54 19° 320° (NW) 03:18:56 435.950
Oscar 19 31 Jan 03:16:51 03:18:57 12° 302° (WNW) 03:20:47 437.125/150
AIST 2 31 Jan 03:17:16 03:21:10 33° 313° (NW) 03:25:06 435.215
DANDE 31 Jan 03:17:19 03:25:20 54° 93° (E) 03:33:38 436.750
M-CUBED/EXP-1 PRIME 31 Jan 03:18:36 03:20:35 13° 263° (W) 03:22:20 437.505
STARS 31 Jan 03:19:56 03:21:48 12° 272° (W) 03:23:25 437.465
GONETS M04 31 Jan 03:20:24 03:26:07 18° 304° (NW) 03:31:22
BEESAT 3 31 Jan 03:25:54 03:28:19 15° 324° (NW) 03:30:39 437.485
HORYU 2 31 Jan 03:31:19 03:35:47 75° 285° (WNW) 03:40:11 437.375
ITAMSAT 1 31 Jan 03:35:32 03:39:29 22° 297° (WNW) 03:43:19 435.822/435.867
CUSAT 1 31 Jan 03:36:08 03:44:26 78° 98° (E) 03:52:45 437.405
JAS-2 31 Jan 03:41:12 03:46:06 28° 95° (E) 03:51:36 435.910
MOZHAYETS 4 31 Jan 03:43:03 03:47:39 82° 74° (ENE) 03:52:15
ISS 31 Jan 03:43:49 03:46:50 32° 221° (SW) 03:49:48 145.825
CUBESAT XI-V 31 Jan 04:06:49 04:08:47 13° 61° (ENE) 04:10:56 437.345
PCSat 31 Jan 04:07:49 04:13:13 72° 302° (WNW) 04:18:41 145.827
AO-7 31 Jan 04:16:10 04:24:34 82° 107° (ESE) 04:32:54 29.400- 29.500
PRISM 31 Jan 04:54:50 04:58:48 50° 72° (ENE) 05:02:49 437.425
STRAND 1 31 Jan 04:57:34 05:02:00 32° 67° (ENE) 05:06:33 437.568
DANDE 31 Jan 05:01:08 05:09:05 41° 292° (WNW) 05:17:01 436.750
RS-15 31 Jan 05:18:21 05:29:15 73° 309° (NW) 05:40:22 29.354- 29.394
CUSAT 1 31 Jan 05:21:14 05:28:20 28° 297° (WNW) 05:35:02 437.405
YUBILEINY 31 Jan 05:24:24 05:32:41 44° 71° (ENE) 05:41:02 435.215
MOZHAYETS 4 31 Jan 05:24:38 05:25:35 10° 274° (W) 05:26:15
JAS-2 31 Jan 05:25:59 05:31:24 46° 290° (WNW) 05:37:24 435.910
CUBESAT XI-V 31 Jan 05:41:04 05:45:40 78° 259° (W) 05:50:19 437.345
Cubesat XI-IV 31 Jan 05:52:51 05:58:08 54° 100° (E) 06:03:24 437.490
PCSat 31 Jan 05:54:23 05:57:42 16° 325° (NW) 06:00:54 145.827
AO-7 31 Jan 06:10:00 06:16:36 26° 307° (NW) 06:22:57 29.400- 29.500
CUTE-I 31 Jan 06:12:11 06:17:36 79° 102° (ESE) 06:23:00 437.470
PRISM 31 Jan 06:32:22 06:34:42 14° 270° (W) 06:36:51 437.425
STRAND 1 31 Jan 06:36:35 06:41:12 33° 264° (W) 06:45:48 437.568
VERMONT LUNAR 31 Jan 06:37:54 06:39:00 11° 150° (SSE) 06:40:12 437.305
GOMX 1 31 Jan 07:19:36 07:21:55 13° 84° (E) 07:24:29 467.674
YUBILEINY 31 Jan 07:21:23 07:29:34 44° 272° (W) 07:37:39 435.215
BRITE-PL 31 Jan 07:33:10 07:37:49 26° 91° (E) 07:42:25 437.365/2234.400
Cubesat XI-IV 31 Jan 07:33:44 07:37:54 23° 297° (WNW) 07:41:58 437.490
RS-15 31 Jan 07:34:36 07:43:59 30° 339° (NNW) 07:53:28 29.354- 29.394
COMPASS 1 31 Jan 07:38:55 07:39:06 10° 86° (E) 07:39:32 437.405
PHONESAT 2.4 31 Jan 07:47:28 07:50:04 19° 155° (SSE) 07:52:43 2401.200-2431.200
HO-68 31 Jan 07:48:20 07:54:26 30° 94° (E) 08:00:40 435.675
CUTE-I 31 Jan 07:53:46 07:57:06 16° 300° (WNW) 08:00:16 437.470
CANX-2 31 Jan 07:56:43 08:00:16 26° 94° (E) 08:03:51 2200.000
AAUSAT CUBESAT 2 31 Jan 08:01:27 08:04:04 17° 90° (E) 08:06:49 437.432
VERMONT LUNAR 31 Jan 08:13:21 08:16:31 33° 165° (SSE) 08:19:43 437.305
BEESAT 2 31 Jan 08:15:46 08:16:52 11° 31° (NNE) 08:18:06 435.950
CUTE 1.7 + AOD 2 31 Jan 08:20:13 08:24:16 43° 98° (E) 08:28:17 437.475
BEESAT 3 31 Jan 08:26:55 08:29:05 14° 35° (NE) 08:31:22 437.485
CINEMA 3 31 Jan 08:29:29 08:33:15 23° 91° (E) 08:36:59 145.822/145.860
Oscar 11 31 Jan 08:30:00 08:32:49 17° 91° (E) 08:35:45 145.826/435.025
POPSAT HIP 1 31 Jan 08:35:21 08:37:28 14° 63° (ENE) 08:39:46 437.405
DUCHIFAT 1 31 Jan 08:36:40 08:38:49 14° 63° (ENE) 08:41:09 145.980
UNISAT 6 31 Jan 08:42:31 08:46:30 29° 68° (ENE) 08:50:32 437.425
SEEDS 31 Jan 08:47:46 08:51:59 75° 102° (ESE) 08:56:09 437.485
GOMX 1 31 Jan 08:55:26 09:00:54 84° 286° (WNW) 09:06:04 467.674
DOVE 4 31 Jan 08:57:38 09:02:53 77° 103° (ESE) 09:07:49 437.250
UKube-1 31 Jan 09:06:08 09:09:35 23° 94° (E) 09:13:06 .
NANOSAT C BR1 31 Jan 09:09:59 09:13:41 30° 69° (ENE) 09:17:29 145.865
BRITE-PL 31 Jan 09:11:08 09:16:35 47° 290° (WNW) 09:21:45 437.365/2234.400
COMPASS 1 31 Jan 09:11:15 09:15:26 72° 285° (WNW) 09:19:34 437.405
SO-50 31 Jan 09:11:42 09:15:58 41° 117° (ESE) 09:20:24 436.795
HUMSAT D 31 Jan 09:12:29 09:14:22 13° 88° (E) 09:16:25 437.325/437.525
ANTELSAT 31 Jan 09:17:54 09:22:33 63° 74° (ENE) 09:27:12 437.575/2403.000
DELFI C3 31 Jan 09:18:51 09:22:45 46° 99° (E) 09:26:39 145.870
TIGRISAT 31 Jan 09:24:18 09:28:59 71° 75° (ENE) 09:33:40 435.000
PHONESAT 2.4 31 Jan 09:24:44 09:28:11 44° 171° (S) 09:31:39 2401.200-2431.200
ZACube-1 31 Jan 09:24:56 09:28:55 33° 95° (E) 09:32:50 437.345
QB50P2 31 Jan 09:25:10 09:29:15 44° 71° (ENE) 09:33:22 145.880/145.840
CUBEBUG 2 31 Jan 09:26:40 09:31:07 50° 98° (E) 09:35:24 437.445
DX 1 31 Jan 09:29:03 09:33:14 41° 98° (E) 09:37:25 434.975-435.025
CANX-2 31 Jan 09:32:33 09:36:13 28° 291° (WNW) 09:39:49 2200.000
QB50P1 31 Jan 09:33:37 09:37:46 53° 73° (ENE) 09:42:00 145.935-145.965
GONETS M04 31 Jan 09:33:45 09:36:27 12° 49° (NE) 09:39:46
BUGSAT 1 31 Jan 09:34:11 09:38:02 40° 71° (ENE) 09:42:00 437.445
HO-68 31 Jan 09:35:34 09:42:32 55° 293° (WNW) 09:49:28 435.675
FUNcube-1 31 Jan 09:36:00 09:40:13 42° 97° (E) 09:44:19 145.935
AAUSAT CUBESAT 2 31 Jan 09:36:04 09:40:01 43° 288° (WNW) 09:43:57 437.432
POLYITAN 1 31 Jan 09:49:44 09:54:03 81° 75° (ENE) 09:58:25 437.675
VERMONT LUNAR 31 Jan 09:50:57 09:54:20 49° 181° (S) 09:57:44 437.305
BEESAT 2 31 Jan 09:51:54 09:56:03 57° 52° (NE) 10:00:08 435.950
RS-15 31 Jan 09:51:59 10:00:57 27° 13° (NNE) 10:10:16 29.354- 29.394
CUTE 1.7 + AOD 2 31 Jan 09:56:57 09:59:56 18° 294° (WNW) 10:02:48 437.475
AIST 2 31 Jan 09:59:15 10:03:08 32° 46° (NE) 10:06:59 435.215
UWE-3 31 Jan 10:02:02 10:06:34 82° 284° (WNW) 10:10:54 435.000/436.395/437.385
50 SAT 31 Jan 10:02:38 10:06:18 33° 96° (E) 10:09:58 437.505
BEESAT 3 31 Jan 10:03:45 10:07:56 84° 54° (NE) 10:12:03 437.485
AISAT 31 Jan 10:03:58 10:08:12 38° 97° (E) 10:12:26 437.250
Oscar 11 31 Jan 10:05:09 10:09:17 45° 288° (WNW) 10:13:23 145.826/435.025
CINEMA 3 31 Jan 10:06:08 10:10:41 40° 290° (WNW) 10:14:59 145.822/145.860
AIST 1 31 Jan 10:06:49 10:10:25 28° 90° (E) 10:14:07
POPSAT HIP 1 31 Jan 10:08:39 10:12:55 64° 259° (W) 10:17:13 437.405
DUCHIFAT 1 31 Jan 10:10:00 10:14:14 63° 259° (W) 10:18:31 145.980
ESTCUBE 1 31 Jan 10:14:15 10:17:48 23° 93° (E) 10:21:25 437.505/2401.250
UNISAT 6 31 Jan 10:18:57 10:23:14 33° 264° (W) 10:27:27 437.425
SEEDS 31 Jan 10:25:49 10:27:17 11° 298° (WNW) 10:28:33 437.485
VELOX 1 31 Jan 10:30:52 10:35:23 73° 102° (ESE) 10:39:52 145.980
CUBEBUG 1 31 Jan 10:32:45 10:36:45 32° 96° (E) 10:40:46 437.445
GOMX 1 31 Jan 10:35:36 10:38:13 13° 302° (WNW) 10:40:31 467.674
DOVE 4 31 Jan 10:36:54 10:40:00 16° 300° (WNW) 10:42:50 437.250
UKube-1 31 Jan 10:41:52 10:45:52 35° 291° (WNW) 10:49:48 .
NANOSAT C BR1 31 Jan 10:45:58 10:49:36 26° 266° (W) 10:53:12 145.865
HUMSAT D 31 Jan 10:46:28 10:50:39 57° 286° (WNW) 10:54:44 437.325/437.525
SO-50 31 Jan 10:52:34 10:56:39 29° 317° (NW) 11:00:50 436.795
DELFI C3 31 Jan 10:55:07 10:57:42 16° 295° (WNW) 11:00:08 145.870
ANTELSAT 31 Jan 10:57:04 10:59:50 15° 271° (W) 11:02:23 437.575/2403.000
ZACube-1 31 Jan 11:01:33 11:05:11 25° 293° (WNW) 11:08:40 437.345
QB50P2 31 Jan 11:02:25 11:05:26 18° 269° (W) 11:08:20 145.880/145.840
PHONESAT 2.4 31 Jan 11:03:01 11:06:30 45° 188° (S) 11:09:59 2401.200-2431.200
TIGRISAT 31 Jan 11:04:01 11:06:19 13° 273° (W) 11:08:22 435.000
CUBEBUG 2 31 Jan 11:04:17 11:07:27 18° 296° (WNW) 11:10:26 437.445
DX 1 31 Jan 11:05:56 11:09:15 21° 295° (WNW) 11:12:28 434.975-435.025
BUGSAT 1 31 Jan 11:10:54 11:13:47 18° 269° (W) 11:16:36 437.445
QB50P1 31 Jan 11:11:33 11:14:04 15° 271° (W) 11:16:25 145.935-145.965
PCSat 31 Jan 11:11:42 11:15:57 23° 42° (NE) 11:20:18 145.827
FUNcube-1 31 Jan 11:13:03 11:16:18 20° 295° (WNW) 11:19:22 145.935
Oscar 19 31 Jan 11:15:32 11:19:29 23° 64° (ENE) 11:23:34 437.125/150
HO-68 31 Jan 11:26:09 11:28:54 12° 312° (NW) 11:31:17 435.675
GONETS M04 31 Jan 11:27:19 11:35:51 57° 75° (ENE) 11:44:23
VERMONT LUNAR 31 Jan 11:29:02 11:32:08 29° 198° (SSW) 11:35:13 437.305
BEESAT 2 31 Jan 11:31:20 11:33:52 15° 249° (WSW) 11:36:15 435.950
AIST 2 31 Jan 11:37:57 11:41:43 30° 244° (WSW) 11:45:24 435.215
50 SAT 31 Jan 11:38:09 11:41:16 21° 293° (WNW) 11:44:16 437.505
ITAMSAT 1 31 Jan 11:38:20 11:40:51 14° 59° (ENE) 11:43:37 435.822/435.867
AISAT 31 Jan 11:41:04 11:44:39 23° 294° (WNW) 11:48:08 437.250
AIST 1 31 Jan 11:44:34 11:48:07 25° 288° (WNW) 11:51:38
SPROUT 31 Jan 11:45:02 11:49:15 47° 99° (E) 11:53:27 437.525
ESTCUBE 1 31 Jan 11:50:38 11:54:50 38° 290° (WNW) 11:59:00 437.505/2401.250
RS-15 31 Jan 12:05:35 12:16:35 55° 44° (NE) 12:28:08 29.354- 29.394
SWISSCUBE 31 Jan 12:07:00 12:09:24 14° 88° (E) 12:12:03 437.505
VELOX 1 31 Jan 12:09:12 12:11:28 13° 298° (WNW) 12:13:33 145.980
CUBEBUG 1 31 Jan 12:09:18 12:13:03 26° 293° (WNW) 12:16:43 437.445
TISAT 1 31 Jan 12:14:12 12:18:32 85° 287° (WNW) 12:22:50 437.305
BEESAT 31 Jan 12:21:42 12:24:56 18° 91° (E) 12:28:19 436.000
ITUPSAT 1 31 Jan 12:26:52 12:30:21 20° 92° (E) 12:33:58 437.325
PHONESAT 2.4 31 Jan 12:41:50 12:44:39 21° 204° (SSW) 12:47:26 2401.200-2431.200
Gurwin Techsat 1B 31 Jan 12:46:11 12:51:00 37° 68° (ENE) 12:55:54 435.225
Oscar 19 31 Jan 12:53:30 12:58:33 50° 261° (W) 13:03:37 437.125/150
PCSat 31 Jan 12:54:31 12:59:55 68° 243° (WSW) 13:05:17 145.827
HORYU 2 31 Jan 12:56:58 12:59:11 14° 62° (ENE) 13:01:36 437.375
ITAMSAT 1 31 Jan 13:14:32 13:19:43 87° 255° (WSW) 13:24:58 435.822/435.867
SPROUT 31 Jan 13:22:01 13:25:02 18° 295° (WNW) 13:27:55 437.525
GONETS M04 31 Jan 13:24:49 13:32:20 33° 275° (W) 13:39:38
AO-7 31 Jan 13:25:35 13:32:29 31° 56° (NE) 13:39:33 29.400- 29.500
STARS 31 Jan 13:31:14 13:32:44 12° 87° (E) 13:34:30 437.465
KKS-1 31 Jan 13:41:17 13:44:51 23° 93° (E) 13:48:29 437.445
SWISSCUBE 31 Jan 13:43:04 13:47:50 67° 286° (WNW) 13:52:35 437.505
BEESAT 31 Jan 13:58:30 14:03:09 51° 288° (WNW) 14:07:46 436.000
JAS-2 31 Jan 13:58:54 14:00:51 12° 58° (ENE) 14:03:02 435.910
DANDE 31 Jan 14:01:55 14:08:05 39° 67° (ENE) 14:12:48 436.750
ITUPSAT 1 31 Jan 14:03:56 14:08:33 46° 289° (WNW) 14:13:07 437.325
CUSAT 1 31 Jan 14:18:24 14:24:31 61° 74° (ENE) 14:29:00 437.405
